,

(GMT )
Resia Pass

Weather History for LIVE - January, 2014

Change the Weather History Date:

Thursday, January 23, 2014

  Actual Average Record
Temperature  
Mean Temperature 28 °F -  
Max Temperature 37 °F 32 °F 42 °F (2012)
Min Temperature 19 °F 17 °F 8 °F (2009)
Degree Days  
Heating Degree Days 37    
Moisture  
Dew Point 19 °F    
Average Humidity 72    
Maximum Humidity 86    
Minimum Humidity 38    
Precipitation  
Precipitation 0.00 in - - ()
Sea Level Pressure  
Sea Level Pressure 29.84 in    
Wind  
Wind Speed 5 mph ()    
Max Wind Speed 7 mph    
Max Gust Speed -    
Visibility 5.3 miles    
Events      
Averages and records for this station are not official NWS values.
T = Trace of Precipitation, MM = Missing Value Source: Averaged Metar Reports

Daily Weather History Graph

Daily Weather History Graph

Search for Another Location

Airport or City:

Trip Planner

Search our weather history database for the weather conditions in past years. The results will help you decide how hot, cold, wet, or windy it might be!

Date:

Astronomy

Jan. 23, 2014 Rise Set
Actual Time 7:52 AM CET 5:07 PM CET
Civil Twilight 7:19 AM CET 5:40 PM CET
Nautical Twilight 6:42 AM CET 6:17 PM CET
Astronomical Twilight 6:06 AM CET 6:53 PM CET
Moon No Moon Rise 10:49 AM CET (1/23)
Length of Visible Light 10h 21m
Length of Day
9h 14m
Waning Gibbous, 58% of the Moon is Illuminated
Jan 23
Waning Gibbous
Jan 24
Last Quarter
Jan 30
New
Feb 6
First Quarter
Feb 15
Full

Hourly Weather History & Observations

Time (CET) Temp. Windchill Dew Point Humidity Pressure Visibility Wind Dir Wind Speed Gust Speed Precip Events Conditions
12:55 AM 23.0 °F 14.7 °F 17.6 °F 80% 29.83 in 5.0 mi North 6.9 mph - N/A   Unknown
1:55 AM 23.0 °F 15.8 °F 17.6 °F 80% 29.83 in 5.0 mi North 5.8 mph - N/A   Unknown
2:55 AM 23.0 °F 14.7 °F 17.6 °F 80% 29.83 in 5.0 mi North 6.9 mph - N/A   Unknown
3:55 AM 21.2 °F 12.6 °F 15.8 °F 80% 29.83 in 5.0 mi North 6.9 mph - N/A   Unknown
4:55 AM 21.2 °F 12.6 °F 15.8 °F 80% 29.83 in 5.0 mi NNE 6.9 mph - N/A   Unknown
5:55 AM 19.4 °F 10.4 °F 15.8 °F 86% 29.86 in - North 6.9 mph - N/A   Clear
6:55 AM 19.4 °F 10.4 °F 14.0 °F 80% 29.83 in - North 6.9 mph - N/A   Clear
7:55 AM 19.4 °F 11.5 °F 14.0 °F 80% 29.83 in - NNE 5.8 mph - N/A   Clear
8:55 AM 19.4 °F 10.4 °F 14.0 °F 80% 29.86 in - North 6.9 mph - N/A   Clear
9:55 AM 21.2 °F 12.6 °F 15.8 °F 80% 29.86 in - North 6.9 mph - N/A   Clear
10:55 AM 21.2 °F 12.6 °F 15.8 °F 80% 29.86 in - North 6.9 mph - N/A   Clear
11:55 AM 26.6 °F 20.0 °F 17.6 °F 69% 29.89 in - North 5.8 mph - N/A   Clear
12:55 PM 35.6 °F 32.8 °F 21.2 °F 56% 29.86 in - North 3.5 mph - N/A   Clear
1:55 PM 37.4 °F - 14.0 °F 38% 29.83 in - Calm Calm - N/A   Clear
2:55 PM 35.6 °F - 14.0 °F 41% 29.83 in - NNE 2.3 mph - N/A   Clear
3:55 PM 35.6 °F - 15.8 °F 44% 29.83 in - North 2.3 mph - N/A   Clear
4:55 PM 33.8 °F 30.8 °F 19.4 °F 56% 29.83 in - North 3.5 mph - N/A   Clear
5:55 PM 32.0 °F - 21.2 °F 64% 29.83 in 6.2 mi Calm Calm - N/A   Scattered Clouds
6:55 PM 32.0 °F - 21.2 °F 64% 29.83 in 6.2 mi NNE 2.3 mph - N/A   Scattered Clouds
7:55 PM 32.0 °F 28.7 °F 24.8 °F 75% 29.86 in 6.2 mi North 3.5 mph - N/A   Mostly Cloudy
8:55 PM 30.2 °F 26.7 °F 26.6 °F 86% 29.86 in 5.0 mi NNE 3.5 mph - N/A   Mostly Cloudy
9:55 PM 30.2 °F - 26.6 °F 86% 29.86 in 5.0 mi Calm Calm - N/A   Mostly Cloudy
10:55 PM 30.2 °F - 24.8 °F 80% 29.83 in 5.0 mi Calm Calm - N/A   Mostly Cloudy
11:55 PM 28.4 °F 24.6 °F 23.0 °F 80% 29.80 in 5.0 mi NNE 3.5 mph - N/A   Mostly Cloudy